NEPALISAT-1

Last updated on July 7, 2021, 12:02 a.m. UTC

1 44331U 98067QG  21187.40316262  .00074395  00000-0  39638-3 0  9998
2 44331  51.6299 186.9564 0005841  19.5872 340.5353 15.79729124117142
UTC
Height (km)
Latitude
Longitude
Inclination
Orbital Period
UTC large
Height (km)
Speed (km/s)
/
Latitude / Longitude
Inclination (degrees)
Orbital Period (minutes)
Azimuth
Elevation
Range (km)
Doppler Factor
iOS Compass Heading
iOS Angle